Miamisburg, OH

3:41 AM EST on January 22, 2017 (GMT -0500)
Dayton-Wright Brothers

Weather History for KMGY - February, 2013

Change the Weather History Date:

Thursday, February 14, 2013

  Actual Average (KFFO) Record (KFFO)
Temperature  
Mean Temperature 38 °F -  
Max Temperature 50 °F 40 °F 57 °F (2001)
Min Temperature 27 °F 23 °F 1 °F (2007)
Degree Days  
Heating Degree Days 26    
Moisture  
Dew Point 31 °F    
Average Humidity 81    
Maximum Humidity 100    
Minimum Humidity 52    
Precipitation  
Precipitation 0.00 in - - ()
Sea Level Pressure  
Sea Level Pressure 29.89 in    
Wind  
Wind Speed 10 mph (SW)    
Max Wind Speed 20 mph    
Max Gust Speed 29 mph    
Visibility 7 miles    
Events      
Averages and records for this station are not official NWS values.
T = Trace of Precipitation, MM = Missing Value Source: NWS Daily Summary

Daily Weather History Graph

Daily Weather History Graph

Search for Another Location

Airport or City:

Trip Planner

Search our weather history database for the weather conditions in past years. The results will help you decide how hot, cold, wet, or windy it might be!

Date:

Astronomy

Feb. 14, 2013 Rise Set
Actual Time 7:30 AM EST 6:12 PM EST
Civil Twilight 7:02 AM EST 6:40 PM EST
Nautical Twilight 6:30 AM EST 7:11 PM EST
Astronomical Twilight 5:59 AM EST 7:43 PM EST
Moon 9:32 AM EST (2/14) 11:13 PM EST (2/14)
Length of Visible Light 11h 37m
Length of Day
10h 42m
Waxing Crescent, 21% of the Moon is Illuminated
Feb 14
Waxing Crescent
Feb 17
First Quarter
Feb 25
Full
Mar 4
Last Quarter
Mar 11
New

Hourly Weather History & Observations

Time (EST) Temp. Windchill Dew Point Humidity Pressure Visibility Wind Dir Wind Speed Gust Speed Precip Events Conditions
12:53 AM 28.0 °F 20.8 °F 26.1 °F 92% 29.90 in 7.0 mi SSW 6.9 mph - N/A   Mostly Cloudy
1:53 AM 27.0 °F 19.5 °F 25.0 °F 92% 29.90 in 6.0 mi South 6.9 mph - N/A   Clear
2:53 AM 27.0 °F 18.0 °F 26.1 °F 96% 29.90 in 6.0 mi South 9.2 mph - N/A   Clear
3:53 AM 28.9 °F 20.4 °F 27.0 °F 92% 29.89 in 6.0 mi SSW 9.2 mph - N/A   Clear
4:53 AM 28.9 °F 21.9 °F 28.0 °F 96% 29.89 in 5.0 mi SSW 6.9 mph - N/A   Mostly Cloudy
5:28 AM 30.2 °F 22.6 °F 28.4 °F 93% 29.86 in 5.0 mi South 8.1 mph - N/A   Overcast
5:53 AM 30.0 °F 21.1 °F 28.9 °F 96% 29.89 in 4.0 mi South 10.4 mph - N/A   Overcast
6:53 AM 32.0 °F 24.8 °F 30.9 °F 96% 29.88 in 4.0 mi SSW 8.1 mph - N/A   Overcast
7:53 AM 32.0 °F 23.6 °F 32.0 °F 100% 29.90 in 3.0 mi SSW 10.4 mph - N/A   Overcast
8:46 AM 33.8 °F 25.3 °F 32.0 °F 93% 29.88 in 2.5 mi SSW 11.5 mph - N/A   Overcast
8:53 AM 33.1 °F 25.5 °F 32.0 °F 96% 29.91 in 3.0 mi SSW 9.2 mph - N/A   Overcast
9:53 AM 33.1 °F 24.9 °F 32.0 °F 96% 29.91 in 4.0 mi SSW 10.4 mph - N/A   Overcast
10:25 AM 33.8 °F 25.3 °F 33.8 °F 100% 29.88 in 5.0 mi SSW 11.5 mph - N/A   Overcast
10:53 AM 35.1 °F 26.4 °F 33.1 °F 92% 29.89 in 5.0 mi SSW 12.7 mph 18.4 mph N/A   Overcast
11:53 AM 36.0 °F 26.3 °F 34.0 °F 93% 29.88 in 7.0 mi SSW 16.1 mph - N/A   Overcast
12:09 PM 37.4 °F 28.5 °F 33.8 °F 87% 29.85 in 8.0 mi SSW 15.0 mph 25.3 mph N/A   Overcast
12:53 PM 39.9 °F 31.4 °F 34.0 °F 79% 29.86 in 10.0 mi South 16.1 mph 23.0 mph N/A   Mostly Cloudy
1:53 PM 44.1 °F 36.8 °F 35.1 °F 71% 29.83 in 10.0 mi SW 16.1 mph - N/A   Mostly Cloudy
2:05 PM 46.4 °F 39.0 °F 35.6 °F 66% 29.80 in 10.0 mi SSW 19.6 mph 25.3 mph N/A   Mostly Cloudy
2:12 PM 46.4 °F 40.1 °F 35.6 °F 66% 29.80 in 10.0 mi SSW 15.0 mph 25.3 mph N/A   Scattered Clouds
2:53 PM 48.0 °F - 34.0 °F 58% 29.81 in 10.0 mi SSW 15.0 mph 28.8 mph N/A   Clear
3:53 PM 50.0 °F - 34.0 °F 54% 29.82 in 10.0 mi SW 15.0 mph 25.3 mph N/A   Scattered Clouds
4:53 PM 50.0 °F - 33.1 °F 52% 29.83 in 10.0 mi WSW 13.8 mph 26.5 mph N/A   Mostly Cloudy
5:53 PM 48.9 °F - 33.1 °F 54% 29.87 in 10.0 mi West 12.7 mph 21.9 mph N/A   Mostly Cloudy
6:53 PM 46.9 °F - 30.9 °F 54% 29.90 in 10.0 mi WSW 12.7 mph - N/A   Clear
7:53 PM 45.0 °F 40.6 °F 30.9 °F 58% 29.93 in 10.0 mi West 8.1 mph - N/A   Mostly Cloudy
8:53 PM 41.0 °F 35.8 °F 33.1 °F 73% 29.96 in 10.0 mi NW 8.1 mph - N/A   Mostly Cloudy
9:53 PM 37.9 °F 34.4 °F 30.9 °F 76% 29.99 in 10.0 mi WNW 4.6 mph - N/A   Scattered Clouds
10:53 PM 37.0 °F 33.3 °F 28.9 °F 73% 29.99 in 10.0 mi West 4.6 mph - N/A   Partly Cloudy
11:53 PM 36.0 °F 33.3 °F 28.0 °F 73% 30.00 in 10.0 mi West 3.5 mph - N/A   Scattered Clouds